Location: Dissen
(37.5842°N, 89.8420°W)
Time: 12:00:41
(UTC+00:00)

Hubble Space Telescope - Visible Passes

Search period start: 10 October 2024 00:00
Search period end: 20 October 2024 00:00
Orbit: 503 x 507 km, 28.5° (Epoch: 09 October)

Date Brightness Start Highest point End Pass type
(mag) Time Alt. Az. Time Alt. Az. Time Alt. Az.
16 Oct 3.0 00:52:57 10° S 00:54:07 12° SSE 00:54:07 12° SSE visible
17 Oct 2.9 00:31:04 10° SSW 00:32:53 13° SSE 00:33:52 12° SSE visible
18 Oct 2.9 00:09:14 10° SSW 00:11:16 14° SSE 00:13:18 10° SE visible
18 Oct 3.6 01:48:03 10° SW 01:48:12 11° SW 01:48:12 11° SW visible
18 Oct 2.9 23:47:24 10° SSW 23:49:37 15° SSE 23:51:50 10° SE visible
19 Oct 3.0 01:26:24 10° SW 01:27:49 17° SSW 01:27:49 17° SSW visible
